Location: Madrid
(40.4000°N, 3.6830°W)
Time: 15:30:23
(UTC+02:00)

ISS - Pass Details

Date: 15 September 2019
Orbit: 411 x 421 km, 51.6° (Epoch: 18 September)

Event Time Altitude Azimuth Distance (km) Brightness Sun altitude
Exits shadow 07:05:38 14° 273° (W) 1,248 -2.0 -10.1°
Maximum altitude 07:07:36 24° 227° (SW) 913 -2.5 -9.8°
Drops below altitude 10° 07:10:21 10° 171° (S) 1,484 -1.0 -9.3°
Sets 07:12:41 0° 157° (SSE) 2,344 0.2 -8.8°
